Regional Weather Roundup
Issued by NWS Sioux Falls, SD

Home | Current Version | Previous Version | Graphics & Text | Print | Product List | Glossary Off
Versions: 1 2 3 4 5 6 7 8 9 10 11 12 13 14 15 16 17 18 19 20 21 22 23 24 25 26 27 28 29 30 31 32 33 34 35 36 37 38 39 40 41 42 43 44 45 46 47 48 49 50

000
ASUS43 KFSD 250602
RWRFSD

WEATHER ROUNDUP FOR SE SOUTH DAKOTA/SW MINNESOTA/NW IOWA
NATIONAL WEATHER SERVICE SIOUX FALLS SD
100 AM CDT MON SEP 25 2017

NOTE: "FAIR" INDICATES FEW OR NO CLOUDS BELOW 12,000 FEET WITH NO
SIGNIFICANT WEATHER AND OR OBSTRUCTIONS TO VISIBILITY.


SDZ038>040-050-052>070-250700-
SOUTHEAST SOUTH DAKOTA

CITY           SKY/WX    TMP DP  RH WIND       PRES   REMARKS
BROOKINGS      CLOUDY    52  50  93 N8        30.03S
CHAMBERLAIN    NOT AVBL
HURON          CLOUDY    52  49  89 N9        30.07R
6HR MIN TEMP:  52; 6HR MAX TEMP:  55;

MADISON        CLOUDY    50  50 100 N7        30.02F
MITCHELL       RAIN      53  51  93 N8        30.03F
6HR MIN TEMP:  53; 6HR MAX TEMP:  57; 6HR PCP:  0.03;

SIOUX FALLS    CLOUDY    56  54  93 N10       30.00S
6HR MIN TEMP:  56; 6HR MAX TEMP:  59; 6HR PCP:  0.06;

WINNER         CLOUDY    52  48  86 N10       30.07F
YANKTON        RAIN      53  52  96 NW10      30.02F
$$

MNZ071-072-080-081-089-090-097-098-250700-
SOUTHWEST MINNESOTA

CITY           SKY/WX    TMP DP  RH WIND       PRES   REMARKS
FAIRMONT       CLOUDY    62  59  90 NW12      29.98R
JACKSON        LGT RAIN  59  55  88 CALM      29.98F
LUVERNE        LGT RAIN  55  52  88 N7        29.99F
MARSHALL       CLOUDY    54  52  93 N12       30.01R
6HR MIN TEMP:  54; 6HR MAX TEMP:  64; 6HR PCP:  0.02;

MONTEVIDEO     CLOUDY    55  52  88 N7        30.01R
PIPESTONE      RAIN      55  54  94 NE7       30.00S
REDWOOD FALLS  LGT RAIN  57  53  86 N7        29.98F
TRACY          CLOUDY    56  55  98 NW9       30.00R
WINDOM         LGT RAIN  57  55  94 VRB6      29.97F
WORTHINGTON    CLOUDY    58  57  97 N7        29.97S
$$

IAZ001>003-012>014-020>022-031-032-NEZ013-014-SDZ071-250700-
NORTHWEST IOWA

CITY           SKY/WX    TMP DP  RH WIND       PRES   REMARKS
CHEROKEE       TSTM      61  61 100 N6        29.96R
DENISON        CLOUDY    64  63  94 NW5       29.96S
ESTHERVILLE    CLOUDY    62  62 100 NE12      29.95S
LE MARS        CLOUDY    59  57  94 NW6       29.98R
ORANGE CITY    CLOUDY    59  59 100 N6        29.98S
SHELDON        CLOUDY    59  57  94 W8G16     29.99R
SIOUX CITY     RAIN      58  58 100 N9        29.97S
6HR MIN TEMP:  58; 6HR MAX TEMP:  65; 6HR PCP:  0.10;

SPENCER        LGT RAIN  63  61  93 NE10      29.95F
6HR MIN TEMP:  63; 6HR MAX TEMP:  70; 6HR PCP:  0.18;

STORM LAKE     CLOUDY    64  63  94 NW12      29.97R
$$

ABBREVIATIONS USED IN REMARKS
   TC - TEMPERATURE IN CELSIUS
  WCI - WIND CHILL INDEX
   HX - HEAT INDEX
  VSB - VISIBILITY





USA.gov is the U.S. government's official web portal to all federal, state and local government web resources and services.